Погода в Оленеке

Погода в Оленеке : погода сейчас, прогноз погоды и архив. Всё, что Вы хотите узнать о погоде в Оленеке!

Хотите узнать прогноз погоды в Оленеке? Тогда Вам сюда: Погода в Оленеке

Поиск расширенной информации на нашем сайте:

Другие новости

Новости СМИ2

Главная страница сайта

Новости сайта

03.07.2017

Напоминаем, что на нашем специализированном сайте Метеоцентр.Азия вы можете получить высокодетализированные автоматические прогнозы погоды по пунктам России, СНГ и мира в авиационном формате (включающие направление и скорость ветра, видимость, явления погоды, количество и форму облачности, нижнюю и верхнюю границу облачности).


Погода в Оленеке - сегодня

Время (UTC), дата Ветер
(°,м/с) 
Видим.   Явления Облачность Т
(°С)
Тd
(°С)
f(%) Тe
(°С)
Pmin
(гПа)
dP
(гПа)
Po
(мм)
O2
(г/м3)
Тmin Tmax R s Состояние
почвы
06 26.07.17 140 (ЮВ) 20000 м    10/5 300 м средняя, верхняя 
[Sc|Ac trans|Ci sp]
+13.9 +5.1 55 +15  1005.6  -0.5  735  281           
09 26.07.17 030 (СВ) 20000 м    10/5 600 м средняя, верхняя 
[Sc|Ac As|Ci fib]
+13.7 +4.6 54 +13  1005.4  -0.2  735  281           
12 26.07.17 040 (СВ) н/о    н/о 
+11.3 +3 57 +11  1006.7  736  284    +15.1       
15 26.07.17 010 (С) н/о    н/о 
+8.2 +2.3 66 +9  1008.3  1.2  736  288           
18 26.07.17 020 (С) н/о    н/о 
+7 +2.1 71 +6  1008.7  0.3  737  289           
21 26.07.17 320 (СЗ) н/о    н/о 
+5.6 +2.3 79 +6  1009.9  737  291           
00 27.07.17 050 (СВ) 20000 м    10/4 600 м средняя 
[Sc|Ac und]
+7.6 +2.3 69 +8  1010.5  0.8  738  289  +4.7        сухая 
03 27.07.17 350 (С) 20000 м    10/4 300 м средняя 
[Sc diur, vesp|Ac und]
+9.3 +0.6 54 +9  1010.8  0.4  738  288           
06 27.07.17 320 (СЗ) 4{10}  20000 м    10/5 600 м кучево-дожд., средняя 
[Cb cap|Ac und]
+10.9 +1.1 51 +10  1010.5  -0.1  738  286           
09 27.07.17 300 (СЗ) 20000 м    8/5 600 м кучево-дожд., средняя 
[Cb cap|Ac und]
+11.8 -0.5 43 +12  1010.6  0.1  738  285           
12 27.07.17 350 (С) н/о    н/о 
+11.1 +0.7 49 +11  1011.3  0.7  739  286    +12.1       
15 27.07.17 020 (С) н/о    н/о 
+9.3 +2.5 62 +10  1012.3  0.8  739  288           
18 27.07.17 320 (СЗ) н/о    н/о 
+6.9 +1.1 67 +7  1013.8  1.2  740  291           
21 27.07.17 тихо ()   н/о    н/о 
+5.9 +1.5 73 +6  1015  1.1  741  292           
00 28.07.17 280 (З) 20000 м    8/5 600 м средняя, верхняя 
[Sc|Ac As|Ci sp]
+8.7 +2.5 65 +10  1015.5  0.8  742  289  +5.5        сухая 
06 28.07.17 270 (З) 20000 м    8/6 540 м кучево-дожд., средняя 
[Cb cap|Ac As]
+12 +0.9 47 +12  1015.7  0.1  742  286           
09 28.07.17 310 (СЗ) 20000 м    8/8 450 м кучево-дожд. 
[Cb cap]
+13.5 +0.4 41 +14  1015.7  0.2  742  285           
12 28.07.17 010 (С) н/о    н/о 
+13.2 +1.1 44 +14  1015.9  0.1  742  285    +14.9       
15 28.07.17 090 (В) н/о    н/о 
+10.6 +0.9 51 +12  1016.4  0.3  743  288           
18 28.07.17 090 (В) н/о    н/о 
+5.7 +1.1 72 +5  1017.1  0.2  743  293           
21 28.07.17 100 (В) н/о    н/о 
+4.4 +1.6 82 +4  1017.3  0.1  743  294           
00 29.07.17 120 (ЮВ) н/о    н/о 
+11.9 +2.7 53 +12  1015.6  -0.9  742  286  +4         
03 29.07.17 200 (Ю) н/о    н/о 
+17.4 +1 33 +17  1013.3  -1.7  741  280           
06 29.07.17 210 (ЮЗ) н/о    н/о 
+18.2 +0.8 31 +19  1011.1  -2.1  739  279           
09 29.07.17 200 (Ю) н/о    н/о 
+19.2 +1.6 31 +20  1008.8  -2.1  738  277           
Время (UTC), дата Ветер
(°,м/с) 
Видим.   Явления Облачность Т
(°С)
Тd
(°С)
f(%) Тe
(°С)
Pmin
(гПа)
dP
(гПа)
Po
(мм)
O2
(г/м3)
Тmin Tmax R s Состояние
почвы

Для получения пояснительной информации подведите курсор к названию столбца.

ПОГОДА в Оленеке - архив

Всё, что Вы хотите узнать о погоде в Оленеке - удобно и подробно!

Выберите нужную дату (начиная с 1 января 2015* года) и нажмите кнопку "Найти".
Будут отображены архивные сводки погоды по пункту Оленек, начиная с указанной даты.


Отображать данные в формате CSV (для использования в таблицах Excel)


Внимание! Наш архив погоды предназначен исключительно для личного некоммерческого использования в познавательных целях. Если Вам необходимы официальные справки о состоянии погоды (для производственных, юридических, коммерческих и т.п. целей), обращайтесь в органы Росгидромета.

*Примечание: данная дата относится к архиву по метеостанциям СССР (Россия, СНГ, Балтия).
Архив по метеостанциям Зарубежной Европы и Азии (кроме Китая) хранится 10 дней, по другим регионам земного шара (Китай, Африка, Америка, Австралия, Океания) - 1 день.

Оленек - район местоположения метеостанции


Название, широта, долгота, высота метеостанции:
Оленек 68.5°ш. 112.4°д. 220 м над ур. моря [Российская Федерация]

Дополнительная информация

В oтличие oт бoльшинства пoгoдных сайтoв мы публикуем пoдрoбную метеoинфoрмацию в детальнoм прoфессиoнальнoм фoрмате.

Характеристики температуры и влажнoсти вoздуха измеряются на высoте 2 м в тени вдали oт зданий и деревьев.
Скoрoсть ветра измеряется на высoте 10 м (на урoвне рoста челoвека скoрoсть ветра ниже в 1.5-2 раза). Если метеoстанция нахoдится в гoрoде или в лесу, тo скoрoсть ветра занижена на 2-4 м/с пo сравнению с oткрытым местoм. Скoрoсть ветра над акватoриями крупных рек и oзёр, а также на вершинах хoлмoв на 2-5 м/с выше, чем в oбычных услoвиях.
Атмoсфернoе давление в разных тoчках местнoсти мoжет значительнo oтличаться oт давления на метеoстанции, в зависимoсти oт услoвий рельефа (при пoдъёме на 10 м давление пoнижается примернo на 1 мм рт.ст.).